Tracking 19827 objects as of 22-Aug-2019
HD Live streaming from Space Station
objects crossing your sky now

SL-16 DEB

Track SL-16 DEB now!
10-day predictions


NORAD ID: 39881
Int'l Code: 1993-016BF
Perigee: 808.9 km
Apogee: 1,003.3 km
Inclination: 71.0 °
Period: 103.0 minutes
Semi major axis: 7277 km
RCS: 0.0064 m2 (small)
Launch date: March 26, 1993
Source: Commonwealth of Independent States (former USSR) (CIS)
Launch site: TYURATAM MISSILE AND SPACE COMPLEX (TTMTR)

Note: This is SATELLITE DEBRIS
aabbcc
Your satellite tracking list
Your tracking list is empty




NASA's NSSDC Master Catalog

Two Line Element Set (TLE):
1 39881U 93016BF  19232.90775564 +.00000128 +00000-0 +11210-3 0  9997
2 39881 070.9909 316.5838 0133597 088.8738 272.7678 13.98503896248183
Source of the keplerian elements: AFSPC